星链-2511 (STARLINK-2511 )

导读 | 豆包AI

STARLINK-2511是美国SpaceX公司星链卫星互联网星座的成员,于2021年4月29日发射入轨。星链项目旨在通过低轨卫星星座,为全球尤其是地面网络难以覆盖的偏远区域提供高速低延迟互联网接入服务,缓解数字鸿沟问题。该卫星运行在近地轨道,属于星链大规模组网中的一颗,助力SpaceX构建全球覆盖的卫星通信网络,但星链的密集部署也引发了太空交通安全等领域的争议。

Basic Information
目录编号:
48332
目录名称:
STARLINK-2511
国际标识:
2021-036BJ
轨道中心:
EARTH
卫星名称:
星链-2511
卫星全名:
星链-2511 (STARLINK-2511 )
卫星状态:
已陨落 最后检测时间 2026-01-12
发射日期:
2021-04-29 UTC
国别 :
美国 (US)
星等 :
--
Orbit Information
数据来源 国际轨道数据
星历时间: 2026-01-12T09:27:23+0800
轨道信息已过期61天
半长轴: 6546.458km
偏心率: 0.0002443
轨道倾角: 53.032°
近地点辐角 175.685°
升交点赤经 317.533°
平近点角 184.422°
近地点: 166.721km
远地点: 169.921km
周期: 87.856分钟
每日圈数: 16.390538
Detailed Information
固有亮度:
5
最大亮度:
2.5
卫星平台:
Starlink V1.0
覆盖范围:
全球
运营商:
太空探索技术公司
运营商所在国:
美国
制造商(研发单位):
太空探索技术公司
制造商所在国:
美国
使用方式:
暂无
Satellite Introduction
星链(Starlink)计划是由太空探索技术公司(SpaceX)提出的一个巨型低轨卫星互联网星座项目,计划在2019年至2024年间在太空搭建由约1.2万颗卫星组成的“星链”网络,其中1584颗将部署在地球上空550千米处的近地轨道,并从2020年开始工作。该卫星仍在工作。